Temperature
9 9 9 9 9 9 9 10 10 10 10 10 10 10 10 10 10 10 10 10 11 11 11 11 11 11 11 11 10 10 10 10 10 10 10 9 9 9 9 9 9 9 9
9 9 9 9 9 9 9 9 9 9 9 9 9 10 10 10 10 10 10 10 10 10 10 10 10 10 10 10 10 10 10 10 9 9 9 8 8 9 9 9 9 9 9
9 9 9 9 9 9 9 9 9 9 9 9 9 9 9 9 10 9 10 10 10 10 10 10 10 10 10 10 10 10 10 9 9 9 9 8 9 8 8 8 8 8 8
9 9 9 9 9 9 9 9 9 9 9 9 9 9 9 9 9 9 9 9 9 9 9 9 9 9 9 9 9 9 9 9 9 9 9 8 8 8 7 8 8 8 8
9 9 9 9 9 9 9 9 9 9 9 9 9 9 9 9 9 9 9 9 9 9 9 9 9 9 9 9 9 9 9 9 9 8 8 8 8 8 7 7 7 7 7
9 8 8 8 8 8 8 8 8 8 9 9 8 8 8 8 9 9 8 8 9 9 8 8 9 9 9 9 9 9 9 9 8 8 8 8 8 7 7 7 6 6 6
8 8 8 8 8 8 8 8 8 8 8 8 8 8 8 8 8 8 8 8 8 8 8 8 8 8 8 8 8 8 8 8 8 8 8 7 7 7 7 7 6 5 6
9 8 8 8 8 8 8 8 8 8 8 8 8 8 8 8 8 8 8 8 8 8 8 8 8 8 8 8 8 8 8 8 8 7 7 7 7 7 7 6 6 5 5
8 8 8 8 8 8 8 8 8 8 8 8 8 8 8 8 7 7 7 7 7 7 7 7 7 7 7 7 7 7 7 7 7 7 7 7 7 6 6 6 6 5 4
8 7 8 7 8 8 8 7 7 7 7 7 7 7 7 7 7 7 7 7 7 7 7 7 7 7 7 7 7 7 7 7 7 7 6 6 6 6 6 6 5 5 5
7 7 7 7 7 7 7 7 7 7 7 7 7 7 7 7 6 6 7 7 7 7 6 6 6 6 6 6 6 6 6 6 6 6 6 6 6 5 5 5 5 5 4
7 7 7 7 7 7 7 7 7 7 7 7 7 7 6 6 6 6 6 6 6 6 6 6 6 6 6 6 6 6 6 6 6 6 5 5 5 5 5 5 5 4 4
6 6 6 6 6 7 7 7 7 6 6 6 6 6 6 6 6 6 6 6 6 6 6 6 6 6 5 5 5 5 5 5 5 5 5 5 5 5 5 4 4 4 4
6 6 6 6 6 6 6 7 6 6 6 6 6 6 6 6 5 5 5 5 5 5 5 5 5 5 5 5 5 5 5 5 5 5 5 5 4 4 4 4 4 4 3
6 6 6 6 6 6 6 6 6 6 6 6 6 6 5 5 5 5 5 5 5 5 5 5 5 5 5 5 5 5 4 4 4 4 4 4 4 4 4 4 3 3 3
6 6 6 6 6 6 6 6 6 6 6 6 5 5 5 5 5 5 5 5 5 5 5 5 5 5 5 5 4 4 4 4 4 4 4 4 4 3 3 3 3 3 3
5 5 5 6 6 6 6 6 6 5 5 5 5 5 5 5 5 5 5 5 4 4 4 4 4 4 4 4 4 4 4 4 3 3 3 3 3 3 3 3 3 2 2
5 5 5 5 6 5 5 5 5 5 5 5 5 5 5 4 4 4 4 4 4 4 4 4 4 4 4 4 4 3 3 3 3 3 3 3 3 2 2 2 2 2 2
5 5 5 5 5 5 5 5 5 5 4 4 4 4 4 4 4 4 4 4 4 4 4 3 3 3 3 3 3 3 3 3 2 2 2 2 2 2 2 2 1 1 1
5 5 5 5 5 5 5 4 4 4 4 4 4 4 4 4 4 4 3 3 3 3 3 3 3 3 3 3 2 2 2 2 2 2 2 2 2 2 1 1 1 1 1
5 5 4 4 4 4 4 4 4 4 4 4 4 4 4 3 3 3 3 3 3 3 3 3 2 2 2 2 2 2 1 1 1 1 1 1 1 1 1 1 0 0 0
4 4 4 4 4 4 4 4 4 3 3 3 3 3 3 3 3 3 3 2 2 2 2 2 2 2 2 2 2 1 1 1 1 1 1 1 0 0 0 0 -0 -0 -1
3 3 3 3 3 3 3 3 3 3 3 2 2 2 2 2 2 2 2 2 2 2 2 1 1 1 1 1 1 1 1 0 0 0 0 -0 -0 -0 -0 -0 -1 -1 -1
2 2 2 2 2 2 2 2 2 2 2 2 2 2 2 2 2 2 1 1 1 1 1 1 1 1 1 1 1 0 0 -0 -0 -1 -1 -1 -1 -1 -1 -1 -1 -1 -2
1 1 2 2 2 2 2 2 1 2 2 2 1 1 1 1 1 1 1 1 1 1 1 1 1 0 0 0 0 -0 -0 -1 -1 -1 -1 -1 -1 -2 -2 -2 -2 -2 -2
0 1 1 1 1 1 1 1 1 1 1 1 1 1 1 1 1 1 1 1 1 1 0 0 0 -0 -0 -0 -1 -1 -1 -1 -2 -2 -2 -2 -2 -2 -2 -2 -2 -3 -3
Wind_Speed
6 4 4 5 5 5 6 6 6 6 4 3 3 4 4 4 3 3 4 5 5 5 4 3 3 3 3 4 5 4 4 3 2 2 2 2 2 2 2 2 1 1 1
5 4 4 5 6 6 6 7 6 6 6 4 3 2 4 3 3 3 3 4 4 4 4 4 3 3 3 4 5 5 4 3 2 2 2 2 3 2 2 2 2 2 1
6 5 5 6 6 7 8 7 7 7 6 5 3 2 3 3 2 3 3 3 4 4 4 4 4 3 3 4 5 6 5 4 3 2 2 2 2 1 3 4 3 2 2
7 6 6 6 7 7 7 7 7 7 6 6 6 6 5 4 4 4 3 3 4 4 4 4 4 4 3 4 5 6 5 6 5 3 2 2 1 2 2 3 4 3 3
7 7 7 7 7 7 7 7 7 7 7 7 7 7 5 4 4 4 4 4 3 3 4 4 4 4 3 4 4 5 6 5 5 4 3 3 2 3 2 3 3 3 3
6 6 6 6 6 6 7 7 7 7 7 7 7 7 7 6 5 5 5 4 3 3 4 4 4 4 3 4 4 4 6 5 6 5 5 4 4 4 3 4 4 4 3
7 7 7 6 7 7 7 7 8 7 7 7 7 7 7 7 7 6 6 5 4 3 4 4 4 3 3 3 4 4 5 6 6 6 5 5 4 3 4 4 4 4 4
7 7 8 7 7 7 7 7 8 8 7 7 7 6 6 5 5 6 5 5 4 4 5 4 4 4 4 4 4 3 4 4 5 5 5 4 4 4 5 4 4 4 4
6 7 7 7 7 7 7 8 8 8 8 7 7 6 6 5 5 5 5 4 4 3 5 4 4 4 4 4 4 3 4 4 4 5 5 5 4 4 5 5 5 5 5
5 6 7 7 6 6 7 7 7 7 7 7 6 5 5 5 5 5 5 5 4 4 4 4 4 4 4 4 4 4 4 4 4 4 5 5 5 5 5 5 5 6 6
5 5 5 6 5 5 6 7 7 7 7 7 6 6 5 5 5 5 5 5 4 4 5 5 5 5 5 4 4 4 4 5 5 5 6 6 6 5 5 5 5 6 6
3 4 5 5 6 6 6 6 6 6 7 6 6 6 5 5 5 5 5 5 5 5 5 5 5 5 5 4 5 5 5 5 5 5 6 6 5 7 6 6 7 6 7
3 4 4 5 6 6 6 6 7 7 6 6 6 5 5 5 5 5 5 4 5 5 5 5 5 5 5 5 5 5 5 5 6 6 6 7 7 7 7 7 7 6 6
4 5 5 5 5 6 6 7 6 6 6 6 6 5 5 6 5 5 5 5 5 5 5 5 5 5 5 5 5 5 5 5 6 6 6 7 7 8 7 7 8 7 7
4 5 5 5 5 5 6 6 6 5 6 6 6 6 5 5 4 4 4 4 4 4 4 5 5 5 5 5 5 5 5 5 6 6 6 7 7 8 7 6 7 7 7
4 5 5 5 5 6 5 6 6 5 5 6 5 5 5 5 5 4 4 4 4 4 4 5 5 5 4 4 5 5 5 5 6 6 6 6 7 8 9 10 10 9 9
5 5 5 5 5 5 5 6 5 5 5 5 4 4 4 5 5 4 4 4 4 4 5 5 5 6 5 5 6 6 6 6 6 6 6 5 6 7 7 8 10 11 12
4 5 5 4 4 4 4 4 5 5 5 5 4 4 5 4 4 4 5 5 4 4 5 5 5 5 5 5 6 6 6 6 7 7 6 6 6 6 6 6 7 8 9
4 4 4 4 4 4 5 4 5 5 5 5 5 5 5 5 4 4 5 4 4 4 5 5 5 5 5 5 5 5 5 5 6 6 6 6 6 6 7 7 8 8 8
3 2 3 3 3 4 5 5 5 5 5 5 5 5 5 5 5 4 4 4 4 5 4 4 5 5 5 5 6 6 4 5 5 5 5 6 7 6 7 7 8 9 8
2 2 2 2 3 4 5 5 5 6 5 4 4 4 4 4 4 4 3 4 4 4 4 4 4 5 5 5 6 6 5 5 5 4 4 4 6 7 8 9 8 8 7
2 1 1 2 2 3 4 4 5 4 3 3 4 4 3 3 3 4 3 3 3 4 4 4 4 4 4 5 6 7 6 5 5 5 5 4 5 7 9 8 8 9 8
2 1 1 2 2 2 4 4 4 3 3 4 4 4 3 3 4 4 4 3 3 4 4 4 4 3 3 4 6 7 7 6 5 5 5 6 7 7 7 8 8 7 6
2 2 2 2 2 2 3 3 3 4 4 4 4 4 4 3 3 3 4 4 4 4 4 4 4 4 3 3 3 3 4 5 5 4 5 6 7 6 6 6 6 5 5
2 2 2 2 2 2 2 2 2 3 4 4 3 3 3 3 3 3 4 5 5 5 5 5 4 4 5 5 5 4 4 4 4 4 4 4 4 4 4 4 5 5 5
2 1 2 2 2 2 2 2 2 3 3 3 3 3 3 3 3 3 3 4 6 6 8 8 7 6 8 8 8 8 7 7 6 5 5 5 5 5 5 5 5 5 5
Wind_Direction
236 222 206 194 188 191 188 181 174 158 151 156 160 165 157 154 156 155 159 165 166 164 159 152 163 170 178 177 171 161 156 150 151 155 151 165 176 174 171 170 159 140 119
223 217 206 189 186 189 186 176 179 172 169 169 172 188 159 160 156 153 161 170 174 171 164 166 172 178 174 179 175 167 166 168 181 195 183 195 197 197 210 209 203 202 192
221 220 211 193 189 194 194 181 179 180 173 166 152 144 132 134 149 168 176 185 183 180 178 178 178 179 180 183 186 182 183 180 184 209 216 212 217 207 206 217 220 221 228
215 216 213 198 193 197 197 188 180 179 172 169 169 173 180 177 184 182 181 181 184 185 186 184 181 181 187 190 197 194 195 191 190 193 225 261 241 217 216 210 220 233 247
211 212 209 201 196 193 195 190 184 180 174 178 181 182 189 179 166 170 174 176 180 184 186 189 187 189 192 196 203 201 199 202 201 197 198 213 228 235 232 241 233 240 242
206 209 203 195 193 189 188 187 186 185 179 177 185 185 183 173 164 175 179 180 183 188 194 197 196 196 194 197 205 206 206 208 208 208 208 212 217 217 225 246 252 257 254
208 202 195 193 189 184 185 186 183 183 179 179 189 186 182 180 180 183 186 185 188 194 201 204 206 204 203 203 204 207 210 212 210 212 215 221 231 229 230 234 248 262 268
209 206 200 194 189 183 186 185 186 182 179 183 187 186 182 185 190 190 188 193 197 200 199 207 212 209 203 204 207 211 214 212 217 220 222 224 226 224 226 234 242 258 255
210 208 201 194 191 183 188 191 186 182 181 183 181 185 185 186 189 193 192 194 197 197 197 203 206 206 206 209 207 214 215 214 217 220 223 228 229 227 227 230 235 244 256
215 210 202 195 191 184 185 188 187 185 184 182 182 184 188 187 188 193 198 199 197 194 198 203 208 207 208 210 213 217 218 219 220 221 225 229 231 230 227 225 234 242 251
217 210 204 196 191 184 183 183 184 184 184 185 186 184 183 188 193 197 202 201 199 196 200 206 208 210 211 211 217 223 219 223 227 222 226 230 230 232 231 228 230 234 241
222 209 199 193 192 190 190 186 187 188 188 187 187 187 180 191 197 199 201 200 202 203 205 208 211 214 217 220 224 228 226 227 231 231 232 234 230 233 233 231 232 234 236
215 203 195 198 197 194 191 190 192 191 187 185 188 185 187 197 201 200 199 199 203 207 208 212 216 218 222 226 231 233 235 235 238 236 236 238 234 236 235 233 234 234 235
225 209 200 203 200 196 193 189 192 191 186 184 186 191 199 205 206 203 201 202 206 208 210 215 219 223 224 227 229 233 240 244 246 246 244 243 240 240 240 238 236 235 235
238 222 209 205 202 198 198 192 190 186 183 185 188 196 202 204 204 204 202 201 208 214 215 218 223 226 228 228 227 233 242 248 251 251 249 247 245 248 246 242 238 232 235
244 234 222 211 203 202 198 188 188 185 185 189 192 193 195 197 205 207 205 208 215 219 221 226 229 231 233 232 235 242 243 246 249 252 252 248 242 242 243 245 246 242 238
242 233 225 215 210 205 197 190 186 181 187 191 191 194 198 204 210 208 209 215 221 223 227 232 233 238 238 229 236 240 246 247 248 247 248 245 242 239 245 242 239 242 242
246 234 226 218 212 203 195 189 182 184 188 192 195 199 203 208 211 213 218 223 225 228 234 237 239 245 245 233 239 240 244 250 252 249 247 248 248 242 243 248 249 250 247
257 240 227 216 208 200 191 185 187 190 194 200 201 203 205 205 208 216 224 227 228 234 237 241 242 246 249 231 234 237 243 247 252 252 248 247 250 249 244 247 252 258 261
268 241 220 200 198 197 187 188 194 197 206 209 208 206 203 203 208 216 225 227 227 234 236 240 243 244 249 234 230 236 240 247 254 255 250 244 249 254 249 252 253 257 263
283 252 217 209 210 196 187 194 202 214 219 211 203 205 206 206 210 212 219 217 218 224 231 240 247 246 247 239 232 235 240 247 253 256 257 255 248 257 258 259 258 261 268
305 260 220 228 226 202 195 202 219 224 212 204 206 211 212 208 207 208 213 214 215 221 231 238 248 250 247 243 238 239 245 254 253 256 260 264 257 265 267 264 263 265 267
301 266 220 224 235 221 210 213 225 214 203 205 209 210 209 209 205 206 210 212 215 224 233 238 245 254 255 249 248 248 248 251 257 263 266 274 274 274 270 264 268 265 258
293 270 241 236 252 251 242 232 218 204 203 211 214 209 209 213 212 212 211 216 218 223 231 238 246 256 259 254 248 253 254 250 255 264 264 266 268 265 270 272 267 259 253
296 278 256 254 265 269 266 259 228 206 209 218 221 221 221 220 221 225 228 229 232 232 234 240 244 248 256 255 254 259 260 259 257 266 264 261 261 262 261 263 264 261 254
304 289 279 276 278 276 276 274 249 225 215 220 226 229 227 226 228 234 254 246 242 249 249 250 249 253 256 261 258 260 266 266 256 258 255 255 255 259 263 266 266 264 262
Height
1479 1480 1480 1481 1482 1484 1485 1487 1489 1490 1493 1494 1496 1497 1500 1503 1505 1507 1509 1510 1510 1511 1512 1513 1514 1515 1516 1517 1518 1519 1520 1521 1522 1522 1523 1523 1524 1524 1523 1524 1524 1524 1524
1476 1477 1477 1478 1479 1481 1482 1484 1486 1488 1490 1492 1494 1496 1498 1500 1503 1505 1506 1507 1508 1509 1510 1510 1511 1513 1514 1515 1516 1516 1517 1518 1519 1521 1521 1522 1524 1522 1521 1522 1522 1522 1522
1472 1473 1475 1475 1477 1479 1480 1481 1483 1486 1488 1490 1492 1494 1495 1497 1500 1502 1503 1505 1506 1507 1508 1508 1509 1510 1511 1512 1513 1514 1515 1516 1517 1518 1519 1520 1521 1520 1520 1520 1520 1520 1519
1469 1470 1472 1473 1474 1476 1478 1479 1481 1483 1485 1487 1489 1491 1492 1494 1496 1499 1501 1502 1503 1504 1505 1506 1507 1508 1508 1509 1510 1511 1512 1513 1514 1515 1515 1517 1517 1518 1518 1518 1518 1517 1517
1466 1467 1469 1470 1472 1474 1475 1476 1479 1481 1483 1484 1487 1488 1490 1492 1494 1497 1498 1500 1501 1502 1503 1504 1504 1505 1506 1507 1507 1508 1509 1510 1511 1511 1512 1513 1514 1514 1515 1515 1515 1515 1514
1464 1465 1466 1468 1470 1471 1473 1474 1476 1478 1480 1482 1485 1485 1487 1489 1491 1494 1496 1497 1498 1499 1500 1501 1501 1502 1503 1504 1505 1505 1506 1506 1507 1508 1509 1510 1511 1511 1511 1512 1511 1511 1511
1461 1462 1463 1465 1467 1468 1470 1471 1473 1475 1477 1480 1482 1483 1484 1486 1488 1491 1492 1493 1494 1496 1497 1498 1499 1499 1500 1501 1502 1502 1502 1503 1504 1504 1505 1506 1507 1507 1507 1508 1507 1507 1507
1458 1459 1460 1462 1464 1465 1467 1469 1471 1473 1475 1477 1479 1480 1482 1483 1486 1488 1489 1490 1492 1493 1494 1495 1496 1496 1497 1498 1498 1499 1499 1500 1500 1501 1502 1502 1503 1503 1504 1504 1504 1504 1504
1455 1456 1458 1459 1461 1462 1465 1467 1468 1471 1473 1475 1475 1477 1479 1481 1483 1485 1486 1488 1489 1490 1491 1492 1493 1493 1494 1495 1495 1495 1496 1496 1497 1497 1498 1498 1499 1499 1500 1500 1501 1502 1500
1453 1454 1455 1456 1458 1460 1462 1464 1466 1468 1470 1471 1473 1474 1476 1478 1480 1482 1483 1484 1486 1487 1488 1489 1490 1490 1491 1491 1491 1492 1492 1493 1493 1493 1494 1494 1495 1495 1496 1496 1496 1497 1497
1451 1452 1453 1454 1456 1458 1460 1462 1464 1465 1467 1469 1470 1472 1473 1475 1477 1479 1480 1481 1482 1484 1484 1485 1486 1486 1487 1487 1488 1488 1488 1489 1489 1489 1490 1490 1491 1491 1491 1491 1492 1492 1492
1449 1450 1451 1453 1454 1455 1457 1459 1461 1463 1465 1466 1468 1469 1471 1473 1474 1476 1477 1478 1479 1480 1481 1482 1482 1483 1483 1484 1484 1484 1484 1485 1485 1485 1485 1486 1486 1486 1487 1487 1487 1487 1487
1447 1448 1449 1450 1451 1453 1454 1456 1458 1460 1462 1464 1465 1466 1468 1470 1471 1473 1474 1475 1476 1477 1478 1478 1479 1479 1480 1480 1480 1480 1480 1481 1481 1481 1481 1482 1482 1482 1482 1482 1482 1482 1482
1446 1446 1447 1448 1449 1450 1452 1453 1455 1457 1459 1460 1462 1463 1465 1467 1468 1470 1471 1472 1473 1474 1474 1474 1475 1475 1476 1476 1476 1476 1476 1476 1476 1477 1477 1477 1477 1477 1477 1477 1477 1477 1477
1444 1444 1444 1445 1446 1447 1449 1450 1452 1454 1455 1457 1459 1461 1462 1464 1465 1466 1467 1468 1469 1470 1471 1471 1471 1472 1472 1472 1472 1472 1472 1472 1472 1472 1472 1472 1473 1473 1472 1472 1472 1472 1472
1441 1441 1442 1443 1443 1445 1446 1447 1449 1451 1453 1454 1456 1458 1459 1461 1462 1463 1464 1465 1465 1466 1467 1467 1467 1467 1468 1468 1468 1468 1468 1468 1468 1467 1467 1468 1468 1467 1467 1467 1467 1466 1466
1439 1439 1439 1440 1441 1442 1443 1445 1447 1449 1450 1452 1453 1455 1456 1457 1458 1459 1460 1461 1461 1462 1462 1463 1463 1463 1464 1464 1464 1464 1464 1464 1463 1463 1463 1463 1463 1463 1462 1461 1461 1460 1460
1437 1437 1437 1438 1439 1440 1441 1443 1445 1446 1448 1449 1450 1452 1453 1454 1454 1455 1456 1457 1457 1458 1458 1458 1459 1459 1459 1459 1459 1459 1459 1459 1459 1459 1458 1458 1457 1457 1457 1456 1455 1454 1454
1435 1435 1435 1435 1436 1437 1438 1440 1442 1443 1444 1446 1447 1448 1449 1450 1451 1451 1452 1452 1453 1453 1454 1454 1454 1454 1454 1455 1455 1455 1454 1454 1454 1454 1453 1453 1452 1452 1452 1451 1449 1449 1448
1432 1432 1432 1433 1434 1435 1436 1437 1439 1440 1441 1442 1444 1445 1446 1446 1447 1447 1448 1448 1449 1449 1450 1450 1450 1450 1450 1450 1450 1450 1449 1449 1449 1448 1448 1448 1447 1447 1446 1446 1444 1443 1443
1430 1430 1430 1431 1431 1433 1434 1435 1436 1437 1438 1439 1440 1441 1442 1443 1443 1444 1444 1444 1445 1446 1446 1446 1446 1446 1446 1446 1446 1445 1445 1445 1444 1444 1443 1443 1443 1442 1441 1441 1440 1439 1438
1428 1428 1428 1429 1429 1430 1431 1432 1433 1434 1435 1436 1436 1437 1438 1439 1440 1440 1441 1441 1441 1441 1441 1441 1441 1441 1441 1441 1441 1441 1440 1440 1440 1439 1439 1438 1438 1437 1436 1436 1435 1435 1434
1427 1427 1427 1427 1427 1428 1429 1429 1430 1431 1432 1432 1433 1434 1435 1436 1436 1437 1437 1437 1437 1437 1437 1437 1437 1437 1437 1437 1437 1436 1436 1435 1435 1435 1434 1434 1433 1432 1431 1431 1430 1429 1428
1425 1425 1425 1424 1425 1425 1426 1427 1427 1428 1428 1429 1430 1430 1431 1432 1432 1433 1433 1433 1433 1433 1433 1433 1433 1432 1432 1432 1432 1432 1431 1431 1431 1430 1430 1429 1428 1427 1427 1426 1425 1424 1423
1422 1422 1422 1422 1422 1422 1423 1423 1424 1424 1425 1425 1426 1427 1427 1428 1428 1429 1429 1429 1429 1429 1429 1429 1429 1428 1428 1428 1428 1427 1427 1426 1426 1426 1425 1424 1423 1422 1421 1420 1420 1419 1418
1420 1420 1420 1419 1419 1419 1420 1420 1421 1421 1421 1422 1422 1423 1423 1424 1424 1424 1425 1425 1425 1425 1425 1424 1424 1424 1424 1424 1423 1423 1423 1422 1422 1421 1420 1419 1418 1418 1417 1416 1415 1414 1412